Flag for Liberia Weather past 2 weeks in Gbarnga, Liberia

Now
75 °F

Clear.


Feels Like: 74 °F
Forecast: 59 / 96 °F
Wind: No wind

Location: Roberts Field

Current Time: Mar 4, 2015 at 1:05:25 AM

Latest Report: Mar 3, 2015 at 11:30 PM


Visibility: 4 mi

Pressure: 29.89 "Hg

Humidity: 94%

Dew point: 73 °F

Location of GbarngaLocation

Historic Weather in Gbarnga — Graph

°F

Gbarnga temperature yesterday

Maximum temperature yesterday: 90 °F (at 1:00 PM)
Minimum temperature yesterday: 70 °F (at 7:00 AM)
Average temperature yesterday: 79 °F

Past Weeks' High & Low Weather Summary

 TemperatureHumidityPressure
High91 °F (Feb 17, 1:30 PM)100% (Feb 19, 4:00 AM)29.95 "Hg (Feb 19, 4:00 AM)
Low70 °F (Mar 3, 7:00 AM)55% (Feb 18, 2:00 PM)29.74 "Hg (Feb 18, 3:30 PM)
Average80 °F83%29.85 "Hg
* Reported Feb 16 11:00 PM — Mar 3 11:30 PM, Gbarnga, Weather by CustomWeather, © 2015

Note: Actual official high and low records may vary slightly from our data, if they occured in-between our weather recording intervals... More about our weather records

Advertising

Gbarnga weather history for previous 24 hours

 ConditionsComfort  
Time TempWeatherWind HumidityBarometerVisibility
11:30 PM
Tue, Mar 3
75 °FClear.No wind94%29.89 "Hg4 mi
11:00 PM77 °FClear.No wind89%29.89 "Hg4 mi
10:30 PM77 °FClear.No wind89%29.89 "Hg4 mi
10:00 PM77 °FClear.No wind89%29.89 "Hg4 mi
9:00 PM77 °FClear.No wind89%29.86 "Hg4 mi
8:30 PM77 °FClear.No wind89%29.86 "Hg4 mi
8:00 PM79 °FClear.No wind84%29.83 "Hg4 mi
6:00 PM84 °FSunny.9 mph70%29.80 "Hg4 mi
5:30 PM84 °FSunny.5 mph74%29.80 "Hg4 mi
5:00 PM86 °FSunny.12 mph70%29.80 "Hg4 mi
4:30 PM86 °FSunny.7 mph70%29.80 "Hg4 mi
4:00 PM88 °FPassing clouds.12 mph66%29.80 "Hg4 mi
3:30 PM88 °FPassing clouds.13 mph66%29.80 "Hg4 mi
3:00 PM90 °FPassing clouds.15 mph63%29.80 "Hg4 mi
2:30 PM90 °FScattered clouds.13 mph67%29.80 "Hg4 mi
2:00 PM90 °FPartly sunny.12 mph63%29.83 "Hg4 mi
1:30 PM90 °FPartly sunny.9 mph63%29.83 "Hg4 mi
1:00 PM90 °FPartly sunny.9 mph63%29.83 "Hg4 mi
12:30 PM88 °FScattered clouds.No wind62%29.86 "Hg4 mi
12:00 PM88 °FScattered clouds.No wind62%29.86 "Hg4 mi
11:30 AM86 °FPassing clouds.5 mph66%29.89 "Hg4 mi
11:00 AM86 °FSunny.5 mph70%29.89 "Hg4 mi
10:30 AM84 °FSunny.No wind70%29.89 "Hg4 mi
10:00 AM81 °FSunny.No wind79%29.89 "Hg4 mi
9:30 AM81 °FSunny.6 mph74%29.89 "Hg4 mi
9:00 AM77 °FSunny.6 mph83%29.89 "Hg4 mi
8:30 AM75 °FSunny.7 mph83%29.89 "Hg4 mi
8:00 AM72 °FSunny.3 mph94%29.86 "Hg4 mi
7:30 AM70 °FClear.No wind94%29.86 "Hg4 mi
7:00 AM70 °FClear.No wind94%29.83 "Hg4 mi
6:30 AM72 °FClear.No wind88%29.83 "Hg4 mi
6:00 AM72 °FClear.No wind83%29.83 "Hg4 mi
5:30 AM72 °FClear.No wind83%29.83 "Hg4 mi
5:00 AM72 °FClear.No wind83%29.83 "Hg4 mi
4:30 AM72 °FClear.No wind88%29.80 "Hg4 mi
4:00 AM72 °FClear.No wind88%29.83 "Hg4 mi
3:00 AM73 °FClear.No wind89%29.83 "Hg4 mi
2:00 AM73 °FClear.No wind89%29.86 "Hg4 mi
1:00 AM73 °FClear.No wind89%29.89 "Hg4 mi
Weather by CustomWeather, © 2015

See weather overviewHow to use our weather pages